Regional Weather Roundup
Issued by NWS Huntsville, AL

Home | Current Version | Previous Version | Text Only | Print | Product List | Glossary On
Versions: 1 2 3 4 5 6 7 8 9 10 11 12 13 14 15 16 17 18 19 20 21 22 23 24 25 26 27 28 29 30 31 32 33 34 35 36 37 38 39 40 41 42 43 44 45 46 47 48 49 50
434
ASUS44 KHUN 111510
RWRHUN

WEATHER ROUNDUP FOR THE TENNESSEE VALLEY
NATIONAL WEATHER SERVICE HUNTSVILLE AL
900 AM CST THU FEB 11 2016

ALZ001>004-111600-
NORTHWEST ALABAMA

CITY           SKY/WX    TMP DP  RH WIND       PRES   REMARKS
RUSSELLVILLE     N/A     30 N/A N/A MISG        N/A
SHOALS AIRPORT SUNNY     35  20  54 E8        30.20R WCI  29
SHOALS TVA RES   N/A     32 N/A N/A MISG        N/A
$$

ALZ005>007-016-111600-
NORTH CENTRAL ALABAMA

CITY           SKY/WX    TMP DP  RH WIND       PRES   REMARKS
CULLMAN AG STN   N/A     34 N/A N/A E6          N/A  WCI  29
DECATUR AP     SUNNY     33  20  58 E9        30.20R WCI  25
HUNTSVILLE AP  MOSUNNY   36  17  46 E9        30.19R WCI  29
HUN NWS/UAH      N/A     38  14  37 NE6         N/A  WCI  33
MERIDIANVILLE  SUNNY     32  18  55 NE3       30.21R
REDSTONE ARSN  SUNNY     37  17  45 E6        30.19R WCI  32
VINEMONT AP    FAIR      37  15  42 E6        30.18R WCI  32
$$

ALZ008>010-111600-
NORTHEAST ALABAMA

CITY           SKY/WX    TMP DP  RH WIND       PRES   REMARKS
ALBERTVILLE    SUNNY     36  25  64 E7        30.17R WCI  30
FORT PAYNE     SUNNY     32  18  55 NE7       30.20R WCI  26
SCOTTSBORO AP  SUNNY     32  18  55 NE7       30.23S WCI  26
SCOTTSBORO HCN   N/A     32 N/A N/A MISG        N/A
VALLEY HEAD      N/A     28 N/A N/A MISG        N/A
$$

TNZ076-096-097-111600-
SOUTHEASTERN MIDDLE TENNESSEE

CITY           SKY/WX    TMP DP  RH WIND       PRES   REMARKS
TULLAHOMA      PTSUNNY   28  19  69 NE3       30.21R
WINCHESTER     SUNNY     34  18  51 NE5       30.21S WCI  30
$$

...SURROUNDING SITES...

CITY           SKY/WX    TMP DP  RH WIND       PRES   REMARKS
ATLANTA        SUNNY     38  14  37 E3        30.20R
ANNISTON       SUNNY     35  15  44 E7        30.20S WCI  29
BIRMINGHAM     SUNNY     41  23  48 SE6       30.18R
CHATTANOOGA    MOSUNNY   34  19  54 N6        30.25R WCI  29
DALTON         NOT AVBL
GADSDEN        SUNNY     35  22  58 NE9       30.21R WCI  28
GOLDEN TRNGL   SUNNY     45  30  57 S6        30.11S
HALEYVILLE     FAIR      38  19  46 VRB3      30.16R
JACKSON TN     SUNNY     33  17  51 E12       30.20R WCI  24
MEMPHIS        PTSUNNY   36  16  44 NE10      30.16R WCI  28
NASHVILLE      CLOUDY    29  21  72 NE6       30.26R WCI  23
OXFORD MS      FAIR      39  25  56 NE6       30.14R WCI  35
ROME             N/A     35  20  54 MISG      30.23R
SAVANNAH       SUNNY     34  16  47 E8        30.19S WCI  27
TUPELO         SUNNY     37  21  52 N5        30.15R WCI  33
TUSCALOOSA     SUNNY     41  31  67 S3        30.16S
$$

...GULF COAST WEATHER...

CITY           SKY/WX    TMP DP  RH WIND       PRES   REMARKS
GULFPORT       SUNNY     58  48  69 SW7       30.23R
PASCAGOULA     SUNNY     61  48  62 SW8       30.24R
MOBILE         SUNNY     57  47  69 SW14G22   30.23S
GULF SHORES    SUNNY     62  47  58 W14G21    30.25R
PENSACOLA      SUNNY     63  46  54 SW12      30.24F
DESTIN         SUNNY     61  51  70 VRB5      30.26S
PANAMA CITY    SUNNY     56  44  64 VRB2      30.28S
APPALACHICOLA  SUNNY     60  48  64 CALM      30.29S
$$





USA.gov is the U.S. government's official web portal to all federal, state and local government web resources and services.